STARLINK-32361, 61933

Orbit data source: Space-Track

STARLINK-32361, 61933 is a payload satellite owned by SpaceX/Seattle (US) in LEO that was launched on Mon, 11 Nov 2024 UTC via an FALCON 9 launch vehicle from the Air Force Eastern Test Range (AFETR). Payload-class satellites include a variety of spacecraft equipped with specific instruments for various scientific and technological missions. These include communications satellites like Starlink; space stations such as the ISS; scientific satellites like the Hubble; Earth observation satellites from companies like Planet Labs, Umbra, and HawkEye 360; GPS; miniature CubeSats for education and research; and military/defense satellites.

Loading next visibility...
Identifier
61933, 2024-207X
Orbit
LEO
Country
Flag of USUS
Related business
Manufacturer
SpaceX/Seattle
Mission
Operational Commercial Communications
Bus & Motor
STARLINK V2M, Unknown motor
Mass
730 kg wet, ~700 kg dry
Launch date (UTC)
2024-11-11 (2 years ago)
Launch vehicle
FALCON 9
Launch site
Air Force Eastern Test Range (AFETR)
Object type
Payload
Rocket body
Debris
Shape & HBR
Box + 2 Pan, 17.7 m
Radar Cross Section
33.884 m², Large (>1 m²)

Expand to show TLE details & history
Last TLE update: 1 day ago

TLE from 1 day ago
0 STARLINK-32361
1 61933U 24207X   26206.10275918  .00021344  00000-0  78242-3 0  9996
2 61933  43.0004 226.0259 0002775 280.2171  79.8368 15.27598729 95733
Epoch: 2026-07-25T02:27Z
TLE epoch observation values (Epoch: 2026-07-25T02:27:58.393Z)
Latitude
0.00002°
Longitude
-113.78724°
Altitude
482.433 km
Speed
7.626 km/s
True Right ascension
15h 04m 06s
True Declination
0° 00' 00"
Sunlit
Object was in daylight at epoch
Visualization orbit readout
Latitude
Unknown
Longitude
Unknown
Altitude
Unknown
Speed
Unknown
Apparent Right ascension
Unknown
Apparent Declination
Unknown
Sunlit
N/A
Visualization observer readout
Local Sidereal Time
22:16:55
Azimuth
Unknown
Elevation
Unknown
Doppler factor
Unknown
Orbital elements
Apogee altitude
486.843 km
Perigee altitude
483.034 km
Semi-major axis
6,863.075 km
Eccentricity
0.00028
Inclination
43.0004°
RAAN
226.0259°
Arg. of periapsis
280.2171°
True anomaly
79.8681°
Mean anomaly
79.8368°
Eccentric anomaly
79.85245°
Mean motion
3.81738 °/min
Orbital period
94.31 mins
BSTAR
0.00078242
Loading maneuver chart data...
Computing Atmospheric mass density...
Loading historical data...
Loading historical data...
Loading historical data...
Loading historical data...
Loading historical data...
Loading historical data...
Loading historical data...

Documentation

Showing up to 5 results
|